| time (UTC) | temp F | wind direction | speed knots | gust knots | rain 1hr in | rain 24hr in | rain mn in | humidity % | barometer mb |
| 20260510010105 | 83 | 293 | 5.2 | 8.7 | 0.00 | 0.00 | 0.00 | 29 | 1010.8 |
| 20260510004604 | 84 | 267 | 4.3 | 7.8 | 0.00 | 0.00 | 0.00 | 28 | 1010.6 |
| 20260510004105 | 85 | 267 | 5.2 | 7.8 | 0.00 | 0.00 | 0.00 | 28 | 1010.6 |
| 20260510003605 | 85 | 274 | 4.3 | 7.8 | 0.00 | 0.00 | 0.00 | 27 | 1010.6 |
| 20260510003106 | 85 | 267 | 6.1 | 7.8 | 0.00 | 0.00 | 0.00 | 27 | 1010.6 |
| 20260510002604 | 85 | 254 | 4.3 | 10.4 | 0.00 | 0.00 | 0.00 | 28 | 1010.6 |
| 20260510002106 | 86 | 282 | 5.2 | 10.4 | 0.00 | 0.00 | 0.00 | 26 | 1010.6 |
| 20260510001604 | 86 | 271 | 5.2 | 10.4 | 0.00 | 0.00 | 0.00 | 27 | 1010.6 |
| 20260510001105 | 87 | 320 | 5.2 | 10.4 | 0.00 | 0.00 | 0.00 | 25 | 1010.6 |
| 20260510000104 | 87 | 290 | 5.2 | 10.4 | 0.00 | 0.00 | 0.00 | 24 | 1010.6 |
| 20260509235604 | 87 | 275 | 3.5 | 8.7 | 0.00 | 0.00 | 0.00 | 24 | 1010.5 |
| 20260509235104 | 87 | 263 | 4.3 | 7.8 | 0.00 | 0.00 | 0.00 | 24 | 1010.5 |
| 20260509234104 | 87 | 265 | 4.3 | 10.4 | 0.00 | 0.00 | 0.00 | 24 | 1010.5 |
| 20260509233604 | 87 | 279 | 5.2 | 7.8 | 0.00 | 0.00 | 0.00 | 25 | 1010.4 |
| 20260509232604 | 88 | 308 | 6.1 | 8.7 | 0.00 | 0.00 | 0.00 | 26 | 1010.5 |
| 20260509231104 | 88 | 283 | 5.2 | 10.4 | 0.00 | 0.00 | 0.00 | 24 | 1010.6 |
| 20260509230604 | 89 | 269 | 6.1 | 10.4 | 0.00 | 0.00 | 0.00 | 24 | 1010.6 |
| 20260509230104 | 89 | 281 | 4.3 | 7.0 | 0.00 | 0.00 | 0.00 | 23 | 1010.5 |
| 20260509225604 | 89 | 292 | 4.3 | 7.8 | 0.00 | 0.00 | 0.00 | 23 | 1010.6 |
| 20260509225104 | 89 | 267 | 3.5 | 7.8 | 0.00 | 0.00 | 0.00 | 23 | 1010.6 |
| 20260509224604 | 89 | 267 | 4.3 | 7.0 | 0.00 | 0.00 | 0.00 | 22 | 1010.6 |
| 20260509224104 | 89 | 240 | 2.6 | 8.7 | 0.00 | 0.00 | 0.00 | 20 | 1010.6 |
| 20260509223104 | 89 | 308 | 5.2 | 8.7 | 0.00 | 0.00 | 0.00 | 20 | 1010.6 |
| 20260509222605 | 89 | 307 | 2.6 | 7.8 | 0.00 | 0.00 | 0.00 | 19 | 1010.7 |
| 20260509221604 | 89 | 5 | 0.0 | 7.0 | 0.00 | 0.00 | 0.00 | 21 | 1010.9 |
| 20260509221104 | 89 | 210 | 2.6 | 7.0 | 0.00 | 0.00 | 0.00 | 18 | 1011.1 |
| 20260509220604 | 90 | 275 | 0.9 | 7.0 | 0.00 | 0.00 | 0.00 | 19 | 1011.1 |
| 20260509220104 | 90 | 300 | 2.6 | 5.2 | 0.00 | 0.00 | 0.00 | 20 | 1011.2 |
| 20260509215604 | 90 | 291 | 0.9 | 4.3 | 0.00 | 0.00 | 0.00 | 20 | 1011.1 |
| 20260509215104 | 89 | 315 | 1.7 | 4.3 | 0.00 | 0.00 | 0.00 | 18 | 1011.2 |
| 20260509214605 | 89 | 263 | 1.7 | 6.1 | 0.00 | 0.00 | 0.00 | 19 | 1011.2 |
| 20260509214104 | 88 | 266 | 0.9 | 6.1 | 0.00 | 0.00 | 0.00 | 20 | 1011.2 |
| 20260509213604 | 88 | 291 | 2.6 | 7.0 | 0.00 | 0.00 | 0.00 | 20 | 1011.3 |
| 20260509213104 | 87 | 265 | 3.5 | 7.0 | 0.00 | 0.00 | 0.00 | 22 | 1011.4 |
| 20260509212107 | 87 | 268 | 2.6 | 8.7 | 0.00 | 0.00 | 0.00 | 22 | 1011.6 |
| 20260509211604 | 87 | 273 | 5.2 | 8.7 | 0.00 | 0.00 | 0.00 | 23 | 1011.7 |
| 20260509210604 | 87 | 304 | 2.6 | 7.0 | 0.00 | 0.00 | 0.00 | 23 | 1011.7 |
| 20260509210105 | 87 | 299 | 2.6 | 7.0 | 0.00 | 0.00 | 0.00 | 24 | 1011.7 |
| 20260509205604 | 86 | 295 | 4.3 | 7.8 | 0.00 | 0.00 | 0.00 | 24 | 1011.7 |
| 20260509205104 | 87 | 275 | 3.5 | 7.8 | 0.00 | 0.00 | 0.00 | 24 | 1011.7 |
| 20260509204604 | 87 | 314 | 4.3 | 7.8 | 0.00 | 0.00 | 0.00 | 23 | 1011.7 |
| 20260509204104 | 87 | 299 | 4.3 | 7.0 | 0.00 | 0.00 | 0.00 | 23 | 1011.8 |
| 20260509203604 | 86 | 288 | 1.7 | 7.0 | 0.00 | 0.00 | 0.00 | 25 | 1011.8 |
| 20260509203104 | 86 | 305 | 5.2 | 7.0 | 0.00 | 0.00 | 0.00 | 24 | 1011.9 |
| 20260509202604 | 86 | 311 | 3.5 | 6.1 | 0.00 | 0.00 | 0.00 | 23 | 1011.9 |
| 20260509202106 | 85 | 263 | 4.3 | 7.8 | 0.00 | 0.00 | 0.00 | 24 | 1011.9 |
| 20260509201606 | 85 | 298 | 3.5 | 7.8 | 0.00 | 0.00 | 0.00 | 24 | 1012.0 |
| 20260509201104 | 85 | 299 | 2.6 | 5.2 | 0.00 | 0.00 | 0.00 | 25 | 1012.0 |
| 20260509200604 | 85 | 253 | 4.3 | 6.1 | 0.00 | 0.00 | 0.00 | 24 | 1012.0 |
| 20260509200104 | 85 | 252 | 4.3 | 7.0 | 0.00 | 0.00 | 0.00 | 26 | 1012.0 |
| 20260509195604 | 85 | 277 | 5.2 | 8.7 | 0.00 | 0.00 | 0.00 | 27 | 1012.1 |
| 20260509195104 | 84 | 286 | 2.6 | 8.7 | 0.00 | 0.00 | 0.00 | 26 | 1012.0 |
| 20260509194604 | 84 | 309 | 4.3 | 7.0 | 0.00 | 0.00 | 0.00 | 26 | 1012.2 |
| 20260509194104 | 84 | 260 | 4.3 | 7.0 | 0.00 | 0.00 | 0.00 | 26 | 1012.2 |
| 20260509193103 | 84 | 263 | 3.5 | 7.0 | 0.00 | 0.00 | 0.00 | 25 | 1012.2 |
| 20260509192604 | 84 | 297 | 4.3 | 7.0 | 0.00 | 0.00 | 0.00 | 26 | 1012.3 |
| 20260509192105 | 83 | 302 | 3.5 | 6.1 | 0.00 | 0.00 | 0.00 | 27 | 1012.3 |
| 20260509191604 | 82 | 261 | 2.6 | 7.0 | 0.00 | 0.00 | 0.00 | 27 | 1012.3 |
| 20260509190604 | 82 | 305 | 4.3 | 7.0 | 0.00 | 0.00 | 0.00 | 28 | 1012.3 |
| 20260509185604 | 82 | 315 | 4.3 | 7.0 | 0.00 | 0.00 | 0.00 | 29 | 1012.3 |
| 20260509185104 | 81 | 306 | 3.5 | 7.8 | 0.00 | 0.00 | 0.00 | 30 | 1012.4 |
| 20260509184604 | 81 | 277 | 3.5 | 7.8 | 0.00 | 0.00 | 0.00 | 31 | 1012.4 |
| 20260509184106 | 81 | 307 | 3.5 | 7.8 | 0.00 | 0.00 | 0.00 | 32 | 1012.3 |
| 20260509183604 | 80 | 246 | 4.3 | 7.8 | 0.00 | 0.00 | 0.00 | 31 | 1012.4 |
| 20260509183104 | 80 | 325 | 2.6 | 7.8 | 0.00 | 0.00 | 0.00 | 32 | 1012.4 |
| 20260509182105 | 79 | 270 | 4.3 | 6.1 | 0.00 | 0.00 | 0.00 | 32 | 1012.5 |
| 20260509181606 | 79 | 293 | 3.5 | 6.1 | 0.00 | 0.00 | 0.00 | 35 | 1012.6 |
| 20260509180604 | 78 | 280 | 1.7 | 6.1 | 0.00 | 0.00 | 0.00 | 35 | 1012.7 |
| 20260509180103 | 78 | 298 | 3.5 | 6.1 | 0.00 | 0.00 | 0.00 | 36 | 1012.7 |
| 20260509175603 | 77 | 282 | 2.6 | 6.1 | 0.00 | 0.00 | 0.00 | 37 | 1012.7 |
| 20260509175104 | 77 | 287 | 4.3 | 6.1 | 0.00 | 0.00 | 0.00 | 37 | 1012.7 |
| 20260509174604 | 76 | 266 | 2.6 | 6.1 | 0.00 | 0.00 | 0.00 | 38 | 1012.7 |
| 20260509174104 | 76 | 268 | 2.6 | 6.1 | 0.00 | 0.00 | 0.00 | 39 | 1012.8 |
| 20260509173104 | 76 | 263 | 3.5 | 7.0 | 0.00 | 0.00 | 0.00 | 40 | 1012.8 |
| 20260509172603 | 75 | 252 | 2.6 | 4.3 | 0.00 | 0.00 | 0.00 | 43 | 1012.7 |
| 20260509172105 | 75 | 307 | 2.6 | 5.2 | 0.00 | 0.00 | 0.00 | 44 | 1012.7 |
| 20260509171603 | 74 | 288 | 2.6 | 5.2 | 0.00 | 0.00 | 0.00 | 44 | 1012.6 |
| 20260509171104 | 74 | 299 | 1.7 | 4.3 | 0.00 | 0.00 | 0.00 | 45 | 1012.7 |
| 20260509170604 | 74 | 276 | 1.7 | 4.3 | 0.00 | 0.00 | 0.00 | 45 | 1012.7 |
| 20260509170104 | 73 | 287 | 2.6 | 4.3 | 0.00 | 0.00 | 0.00 | 46 | 1012.7 |
| 20260509165604 | 72 | 283 | 1.7 | 5.2 | 0.00 | 0.00 | 0.00 | 47 | 1012.7 |
| 20260509165104 | 72 | 281 | 2.6 | 5.2 | 0.00 | 0.00 | 0.00 | 46 | 1012.8 |
| 20260509164604 | 72 | 294 | 2.6 | 4.3 | 0.00 | 0.00 | 0.00 | 45 | 1012.8 |
| 20260509164104 | 71 | 292 | 1.7 | 4.3 | 0.00 | 0.00 | 0.00 | 46 | 1012.8 |
| 20260509163604 | 71 | 290 | 1.7 | 4.3 | 0.00 | 0.00 | 0.00 | 42 | 1012.9 |
| 20260509162605 | 69 | 307 | 1.7 | 2.6 | 0.00 | 0.00 | 0.00 | 44 | 1012.7 |
| 20260509162104 | 69 | 307 | 0.9 | 2.6 | 0.00 | 0.00 | 0.00 | 45 | 1012.7 |
| 20260509161606 | 68 | 307 | 0.9 | 2.6 | 0.00 | 0.00 | 0.00 | 47 | 1012.8 |
| 20260509161103 | 67 | 307 | 0.9 | 2.6 | 0.00 | 0.00 | 0.00 | 47 | 1012.8 |
| 20260509160604 | 67 | 307 | 1.7 | 2.6 | 0.00 | 0.00 | 0.00 | 50 | 1012.9 |
| 20260509155604 | 66 | 307 | 0.9 | 2.6 | 0.00 | 0.00 | 0.00 | 55 | 1012.8 |
| 20260509155104 | 65 | 307 | 1.7 | 2.6 | 0.00 | 0.00 | 0.00 | 57 | 1012.9 |
| 20260509154604 | 65 | 28 | 1.7 | 2.6 | 0.00 | 0.00 | 0.00 | 58 | 1012.9 |
| 20260509154104 | 65 | 57 | 1.7 | 2.6 | 0.00 | 0.00 | 0.00 | 59 | 1012.9 |
| 20260509153604 | 64 | 57 | 0.9 | 2.6 | 0.00 | 0.00 | 0.00 | 59 | 1013.0 |
| 20260509153104 | 64 | 60 | 1.7 | 2.6 | 0.00 | 0.00 | 0.00 | 60 | 1013.0 |
| 20260509152604 | 64 | 67 | 1.7 | 2.6 | 0.00 | 0.00 | 0.00 | 62 | 1013.0 |
| 20260509152104 | 63 | 68 | 0.9 | 1.7 | 0.00 | 0.00 | 0.00 | 62 | 1013.0 |
| 20260509151607 | 63 | 68 | 0.9 | 2.6 | 0.00 | 0.00 | 0.00 | 63 | 1013.0 |
| 20260509151104 | 63 | 68 | 1.7 | 2.6 | 0.00 | 0.00 | 0.00 | 64 | 1013.0 |
| 20260509150604 | 62 | 68 | 0.0 | 2.6 | 0.00 | 0.00 | 0.00 | 65 | 1013.0 |
| 20260509145103 | 63 | 68 | 0.9 | 1.7 | 0.00 | 0.00 | 0.00 | 64 | 1013.0 |
| 20260509144604 | 63 | 68 | 0.0 | 0.9 | 0.00 | 0.00 | 0.00 | 66 | 1013.0 |
| 20260509144104 | 62 | 68 | 0.0 | 0.9 | 0.00 | 0.00 | 0.00 | 64 | 1013.0 |
| 20260509143104 | 62 | 68 | 0.0 | 0.9 | 0.00 | 0.00 | 0.00 | 62 | 1013.0 |
| 20260509142604 | 62 | 68 | 0.0 | 0.9 | 0.00 | 0.00 | 0.00 | 61 | 1013.0 |
| 20260509142106 | 62 | 68 | 0.0 | 0.0 | 0.00 | 0.00 | 0.00 | 61 | 1012.9 |
| 20260509141604 | 61 | 68 | 0.0 | 0.0 | 0.00 | 0.00 | 0.00 | 59 | 1012.8 |
| 20260509141104 | 61 | 68 | 0.0 | 0.9 | 0.00 | 0.00 | 0.00 | 58 | 1012.7 |
| 20260509140605 | 60 | 68 | 0.0 | 0.9 | 0.00 | 0.00 | 0.00 | 56 | 1012.7 |
| 20260509140104 | 60 | 68 | 0.0 | 0.9 | 0.00 | 0.00 | 0.00 | 54 | 1012.8 |
| 20260509135604 | 59 | 68 | 0.0 | 0.9 | 0.00 | 0.00 | 0.00 | 54 | 1012.8 |
| 20260509135104 | 58 | 67 | 0.0 | 0.9 | 0.00 | 0.00 | 0.00 | 53 | 1012.8 |
| 20260509134605 | 58 | 69 | 0.0 | 0.9 | 0.00 | 0.00 | 0.00 | 52 | 1012.8 |
| 20260509134103 | 58 | 69 | 0.0 | 0.9 | 0.00 | 0.00 | 0.00 | 52 | 1012.8 |
| 20260509133605 | 58 | 69 | 0.0 | 0.9 | 0.00 | 0.00 | 0.00 | 50 | 1012.8 |
| 20260509133104 | 58 | 68 | 0.0 | 0.9 | 0.00 | 0.00 | 0.00 | 48 | 1012.8 |
| 20260509132604 | 58 | 68 | 0.0 | 1.7 | 0.00 | 0.00 | 0.00 | 48 | 1012.7 |
| 20260509132104 | 58 | 57 | 0.0 | 1.7 | 0.00 | 0.00 | 0.00 | 49 | 1012.7 |
| 20260509131606 | 58 | 57 | 0.0 | 0.9 | 0.00 | 0.00 | 0.00 | 51 | 1012.7 |
| 20260509131104 | 58 | 60 | 0.0 | 0.9 | 0.00 | 0.00 | 0.00 | 55 | 1012.7 |
| 20260509130605 | 58 | 59 | 0.0 | 0.9 | 0.00 | 0.00 | 0.00 | 61 | 1012.7 |
| 20260509130104 | 58 | 64 | 0.0 | 0.9 | 0.00 | 0.00 | 0.00 | 61 | 1012.7 |
| 20260509125604 | 58 | 65 | 0.0 | 0.9 | 0.00 | 0.00 | 0.00 | 58 | 1012.6 |
| 20260509125104 | 57 | 65 | 0.0 | 0.0 | 0.00 | 0.00 | 0.00 | 58 | 1012.6 |
| 20260509124604 | 57 | 65 | 0.0 | 0.9 | 0.00 | 0.00 | 0.00 | 60 | 1012.6 |
| 20260509124104 | 58 | 65 | 0.0 | 0.9 | 0.00 | 0.00 | 0.00 | 63 | 1012.6 |
| 20260509123604 | 58 | 65 | 0.9 | 0.9 | 0.00 | 0.00 | 0.00 | 67 | 1012.5 |
| 20260509123104 | 58 | 61 | 0.0 | 0.9 | 0.00 | 0.00 | 0.00 | 68 | 1012.6 |
| 20260509122606 | 58 | 61 | 0.0 | 0.0 | 0.00 | 0.00 | 0.00 | 68 | 1012.5 |
| 20260509122104 | 59 | 61 | 0.0 | 0.9 | 0.00 | 0.00 | 0.00 | 68 | 1012.5 |
| 20260509121607 | 59 | 61 | 0.0 | 0.9 | 0.00 | 0.00 | 0.00 | 68 | 1012.5 |
| 20260509121104 | 59 | 61 | 0.0 | 0.9 | 0.00 | 0.00 | 0.00 | 69 | 1012.4 |
| 20260509120604 | 59 | 62 | 0.0 | 0.9 | 0.00 | 0.00 | 0.00 | 70 | 1012.3 |
| 20260509120104 | 59 | 61 | 0.0 | 0.9 | 0.00 | 0.00 | 0.00 | 70 | 1012.3 |
| 20260509115604 | 59 | 61 | 0.0 | 0.9 | 0.00 | 0.00 | 0.00 | 69 | 1012.4 |
| 20260509115103 | 59 | 61 | 0.0 | 0.9 | 0.00 | 0.00 | 0.00 | 69 | 1012.4 |
| 20260509114605 | 59 | 61 | 0.0 | 0.9 | 0.00 | 0.00 | 0.00 | 69 | 1012.4 |
| 20260509113603 | 60 | 60 | 0.0 | 0.9 | 0.00 | 0.00 | 0.00 | 68 | 1012.4 |
| 20260509113104 | 60 | 57 | 0.0 | 0.9 | 0.00 | 0.00 | 0.00 | 68 | 1012.5 |
| 20260509112604 | 60 | 57 | 0.0 | 0.9 | 0.00 | 0.00 | 0.00 | 67 | 1012.5 |
| 20260509112104 | 59 | 57 | 0.9 | 0.9 | 0.00 | 0.00 | 0.00 | 66 | 1012.6 |
| 20260509111607 | 59 | 53 | 0.0 | 0.9 | 0.00 | 0.00 | 0.00 | 66 | 1012.5 |
| 20260509111103 | 60 | 51 | 0.0 | 0.9 | 0.00 | 0.00 | 0.00 | 69 | 1012.4 |
| 20260509110604 | 60 | 51 | 0.0 | 0.9 | 0.00 | 0.00 | 0.00 | 69 | 1012.4 |
| 20260509110105 | 60 | 37 | 0.0 | 0.9 | 0.00 | 0.00 | 0.00 | 69 | 1012.6 |
| 20260509105604 | 60 | 51 | 0.0 | 0.9 | 0.00 | 0.00 | 0.00 | 69 | 1012.6 |
| 20260509105104 | 60 | 36 | 0.0 | 0.9 | 0.00 | 0.00 | 0.00 | 68 | 1012.7 |
| 20260509104603 | 60 | 48 | 0.0 | 0.9 | 0.00 | 0.00 | 0.00 | 68 | 1012.6 |
| 20260509104108 | 60 | 48 | 0.0 | 1.7 | 0.00 | 0.00 | 0.00 | 67 | 1012.7 |
| 20260509103605 | 60 | 47 | 0.0 | 1.7 | 0.00 | 0.00 | 0.00 | 67 | 1012.7 |
| 20260509103104 | 60 | 42 | 0.9 | 1.7 | 0.00 | 0.00 | 0.00 | 68 | 1012.7 |
| 20260509102606 | 60 | 36 | 0.0 | 1.7 | 0.00 | 0.00 | 0.00 | 70 | 1012.7 |
| 20260509102104 | 60 | 35 | 0.0 | 1.7 | 0.00 | 0.00 | 0.00 | 70 | 1012.7 |
| 20260509101606 | 60 | 27 | 0.9 | 1.7 | 0.00 | 0.00 | 0.00 | 70 | 1012.8 |
| 20260509101104 | 60 | 354 | 0.0 | 0.9 | 0.00 | 0.00 | 0.00 | 70 | 1012.8 |
| 20260509095604 | 60 | 355 | 0.0 | 0.0 | 0.00 | 0.00 | 0.00 | 70 | 1012.8 |
| 20260509095104 | 60 | 355 | 0.0 | 0.0 | 0.00 | 0.00 | 0.00 | 71 | 1012.8 |
| 20260509094604 | 60 | 355 | 0.0 | 0.0 | 0.00 | 0.00 | 0.00 | 71 | 1013.0 |
| 20260509094104 | 60 | 355 | 0.0 | 0.0 | 0.00 | 0.00 | 0.00 | 71 | 1013.0 |
| 20260509093604 | 60 | 355 | 0.0 | 0.9 | 0.00 | 0.00 | 0.00 | 70 | 1013.0 |
| 20260509093105 | 60 | 355 | 0.0 | 0.9 | 0.00 | 0.00 | 0.00 | 71 | 1013.1 |
| 20260509092605 | 60 | 355 | 0.0 | 1.7 | 0.00 | 0.00 | 0.00 | 71 | 1013.1 |
| 20260509092105 | 60 | 355 | 0.0 | 1.7 | 0.00 | 0.00 | 0.00 | 70 | 1013.2 |
| 20260509091605 | 61 | 349 | 0.0 | 0.9 | 0.00 | 0.00 | 0.00 | 70 | 1013.2 |
| 20260509091104 | 61 | 349 | 0.0 | 0.9 | 0.00 | 0.00 | 0.00 | 70 | 1013.2 |
| 20260509090604 | 61 | 348 | 0.0 | 0.9 | 0.00 | 0.00 | 0.00 | 70 | 1013.2 |
| 20260509090104 | 61 | 348 | 0.0 | 0.9 | 0.00 | 0.00 | 0.00 | 70 | 1013.2 |
| 20260509085604 | 61 | 348 | 0.0 | 0.9 | 0.00 | 0.00 | 0.00 | 71 | 1013.2 |
| 20260509084604 | 61 | 341 | 0.0 | 0.9 | 0.00 | 0.00 | 0.00 | 72 | 1013.4 |
| 20260509084104 | 61 | 340 | 0.0 | 0.9 | 0.00 | 0.00 | 0.00 | 72 | 1013.5 |
| 20260509083605 | 61 | 341 | 0.9 | 0.9 | 0.00 | 0.00 | 0.00 | 71 | 1013.6 |
| 20260509083104 | 61 | 336 | 0.0 | 0.9 | 0.00 | 0.00 | 0.00 | 71 | 1013.6 |
| 20260509082606 | 61 | 336 | 0.0 | 0.9 | 0.00 | 0.00 | 0.00 | 71 | 1013.6 |
| 20260509082104 | 61 | 336 | 0.0 | 0.9 | 0.00 | 0.00 | 0.00 | 71 | 1013.7 |
| 20260509081606 | 61 | 336 | 0.0 | 0.9 | 0.00 | 0.00 | 0.00 | 71 | 1013.7 |
| 20260509081105 | 61 | 335 | 0.0 | 0.9 | 0.00 | 0.00 | 0.00 | 70 | 1013.7 |
| 20260509080604 | 61 | 336 | 0.0 | 0.9 | 0.00 | 0.00 | 0.00 | 70 | 1013.7 |
| 20260509080105 | 61 | 336 | 0.0 | 0.9 | 0.00 | 0.00 | 0.00 | 70 | 1013.7 |
| 20260509075604 | 61 | 336 | 0.0 | 0.9 | 0.00 | 0.00 | 0.00 | 70 | 1013.8 |
| 20260509075105 | 61 | 336 | 0.0 | 0.9 | 0.00 | 0.00 | 0.00 | 70 | 1013.8 |
| 20260509074604 | 61 | 334 | 0.0 | 0.9 | 0.00 | 0.00 | 0.00 | 70 | 1013.9 |
| 20260509074104 | 61 | 330 | 0.0 | 0.9 | 0.00 | 0.00 | 0.00 | 69 | 1014.0 |
| 20260509073104 | 62 | 329 | 0.0 | 0.9 | 0.00 | 0.00 | 0.00 | 69 | 1014.1 |
| 20260509072605 | 62 | 328 | 0.0 | 0.9 | 0.00 | 0.00 | 0.00 | 69 | 1014.1 |
| 20260509072104 | 62 | 327 | 0.0 | 0.9 | 0.00 | 0.00 | 0.00 | 69 | 1014.1 |
| 20260509071604 | 62 | 327 | 0.0 | 0.9 | 0.00 | 0.00 | 0.00 | 69 | 1014.1 |
| 20260509071104 | 62 | 327 | 0.0 | 0.0 | 0.00 | 0.00 | 0.00 | 69 | 1014.1 |
| 20260509070604 | 62 | 327 | 0.0 | 0.0 | 0.00 | 0.00 | 0.00 | 69 | 1014.2 |
| 20260509070105 | 62 | 327 | 0.0 | 0.0 | 0.00 | 0.00 | 0.00 | 69 | 1014.2 |
| 20260509065604 | 63 | 327 | 0.0 | 0.0 | 0.00 | 0.00 | 0.00 | 68 | 1014.2 |
| 20260509065103 | 63 | 327 | 0.0 | 0.0 | 0.00 | 0.00 | 0.00 | 68 | 1014.3 |
| 20260509064604 | 63 | 327 | 0.0 | 0.0 | 0.00 | 0.00 | 0.00 | 67 | 1014.3 |
| 20260509064103 | 63 | 327 | 0.0 | 0.0 | 0.00 | 0.00 | 0.00 | 67 | 1014.3 |
| 20260509063604 | 63 | 327 | 0.0 | 0.0 | 0.00 | 0.00 | 0.00 | 67 | 1014.3 |
| 20260509063104 | 64 | 327 | 0.0 | 0.0 | 0.00 | 0.00 | 0.00 | 66 | 1014.3 |
| 20260509062607 | 64 | 327 | 0.0 | 0.0 | 0.00 | 0.00 | 0.00 | 66 | 1014.3 |
| 20260509062104 | 64 | 327 | 0.0 | 0.9 | 0.00 | 0.00 | 0.00 | 65 | 1014.3 |
| 20260509061607 | 65 | 327 | 0.0 | 0.9 | 0.00 | 0.00 | 0.00 | 65 | 1014.3 |
| 20260509061103 | 65 | 327 | 0.0 | 0.0 | 0.00 | 0.00 | 0.00 | 65 | 1014.3 |
| 20260509060105 | 65 | 327 | 0.0 | 0.0 | 0.00 | 0.00 | 0.00 | 64 | 1014.3 |
| 20260509055104 | 65 | 327 | 0.0 | 0.0 | 0.00 | 0.00 | 0.00 | 63 | 1014.3 |
| 20260509053605 | 66 | 327 | 0.0 | 0.9 | 0.00 | 0.00 | 0.00 | 62 | 1014.3 |
| 20260509053104 | 66 | 327 | 0.0 | 1.7 | 0.00 | 0.00 | 0.00 | 62 | 1014.3 |
| 20260509052604 | 66 | 327 | 0.0 | 1.7 | 0.00 | 0.00 | 0.00 | 61 | 1014.3 |
| 20260509052104 | 67 | 327 | 0.0 | 1.7 | 0.00 | 0.00 | 0.00 | 61 | 1014.3 |
| 20260509051103 | 67 | 323 | 0.0 | 0.9 | 0.00 | 0.00 | 0.00 | 60 | 1014.3 |
| 20260509050604 | 68 | 323 | 0.0 | 1.7 | 0.00 | 0.00 | 0.00 | 60 | 1014.3 |
| 20260509050105 | 68 | 323 | 0.0 | 2.6 | 0.00 | 0.00 | 0.00 | 59 | 1014.3 |
| 20260509045104 | 68 | 319 | 0.0 | 1.7 | 0.00 | 0.00 | 0.00 | 58 | 1014.3 |
| 20260509044604 | 69 | 319 | 0.9 | 1.7 | 0.00 | 0.00 | 0.00 | 58 | 1014.3 |
| 20260509044104 | 69 | 320 | 0.9 | 1.7 | 0.00 | 0.00 | 0.00 | 57 | 1014.3 |
| 20260509043603 | 69 | 315 | 0.0 | 1.7 | 0.00 | 0.00 | 0.00 | 57 | 1014.3 |
| 20260509043104 | 69 | 315 | 0.0 | 1.7 | 0.00 | 0.00 | 0.00 | 57 | 1014.3 |
| 20260509041104 | 70 | 316 | 0.0 | 1.7 | 0.00 | 0.00 | 0.00 | 55 | 1014.0 |
| 20260509040604 | 71 | 308 | 0.0 | 1.7 | 0.00 | 0.00 | 0.00 | 55 | 1013.9 |
| 20260509040104 | 71 | 306 | 0.0 | 2.6 | 0.00 | 0.00 | 0.00 | 54 | 1013.8 |
| 20260509035604 | 71 | 312 | 0.0 | 2.6 | 0.00 | 0.00 | 0.00 | 54 | 1013.9 |
| 20260509035104 | 71 | 298 | 0.9 | 2.6 | 0.00 | 0.00 | 0.00 | 53 | 1013.8 |
| 20260509034604 | 72 | 295 | 0.9 | 4.3 | 0.00 | 0.00 | 0.00 | 52 | 1013.9 |
| 20260509034103 | 72 | 294 | 2.6 | 4.3 | 0.00 | 0.00 | 0.00 | 51 | 1013.8 |
| 20260509033604 | 72 | 291 | 0.9 | 2.6 | 0.00 | 0.00 | 0.00 | 51 | 1013.8 |
| 20260509033104 | 72 | 282 | 0.9 | 2.6 | 0.00 | 0.00 | 0.00 | 50 | 1013.7 |
| 20260509032604 | 72 | 279 | 0.0 | 2.6 | 0.00 | 0.00 | 0.00 | 50 | 1013.7 |
| 20260509032106 | 72 | 278 | 0.0 | 2.6 | 0.00 | 0.00 | 0.00 | 50 | 1013.7 |
| 20260509031604 | 72 | 278 | 1.7 | 4.3 | 0.00 | 0.00 | 0.00 | 50 | 1013.7 |
| 20260509031106 | 72 | 278 | 1.7 | 4.3 | 0.00 | 0.00 | 0.00 | 50 | 1013.7 |
| 20260509030604 | 73 | 277 | 1.7 | 4.3 | 0.00 | 0.00 | 0.00 | 50 | 1013.6 |
| 20260509030104 | 73 | 276 | 1.7 | 2.6 | 0.00 | 0.00 | 0.00 | 50 | 1013.5 |
| 20260509025604 | 73 | 274 | 2.6 | 2.6 | 0.00 | 0.00 | 0.00 | 50 | 1013.4 |
| 20260509025104 | 74 | 273 | 1.7 | 2.6 | 0.00 | 0.00 | 0.00 | 50 | 1013.3 |
| 20260509024605 | 74 | 273 | 1.7 | 2.6 | 0.00 | 0.00 | 0.00 | 49 | 1013.2 |
| 20260509024103 | 75 | 272 | 1.7 | 2.6 | 0.00 | 0.00 | 0.00 | 49 | 1013.2 |
| 20260509023604 | 75 | 272 | 1.7 | 2.6 | 0.00 | 0.00 | 0.00 | 48 | 1013.1 |
| 20260509022606 | 76 | 272 | 1.7 | 2.6 | 0.00 | 0.00 | 0.00 | 47 | 1013.1 |
| 20260509022103 | 77 | 272 | 1.7 | 4.3 | 0.00 | 0.00 | 0.00 | 47 | 1013.0 |
| 20260509021607 | 77 | 272 | 1.7 | 4.3 | 0.00 | 0.00 | 0.00 | 46 | 1013.0 |
| 20260509021103 | 78 | 269 | 1.7 | 4.3 | 0.00 | 0.00 | 0.00 | 45 | 1012.9 |
| 20260509020603 | 78 | 269 | 2.6 | 5.2 | 0.00 | 0.00 | 0.00 | 44 | 1012.9 |
| 20260509015604 | 79 | 269 | 2.6 | 5.2 | 0.00 | 0.00 | 0.00 | 42 | 1012.7 |
| 20260509015104 | 80 | 275 | 2.6 | 6.1 | 0.00 | 0.00 | 0.00 | 42 | 1012.7 |
| 20260509014604 | 80 | 295 | 4.3 | 6.1 | 0.00 | 0.00 | 0.00 | 41 | 1012.6 |
| 20260509014104 | 80 | 273 | 3.5 | 6.1 | 0.00 | 0.00 | 0.00 | 42 | 1012.6 |
| 20260509013603 | 80 | 259 | 4.3 | 6.1 | 0.00 | 0.00 | 0.00 | 41 | 1012.6 |
| 20260509013104 | 80 | 261 | 4.3 | 7.8 | 0.00 | 0.00 | 0.00 | 39 | 1012.6 |
| 20260509012604 | 81 | 262 | 5.2 | 7.8 | 0.00 | 0.00 | 0.00 | 40 | 1012.6 |
| 20260509012103 | 81 | 266 | 5.2 | 7.8 | 0.00 | 0.00 | 0.00 | 40 | 1012.6 |
| 20260509011104 | 82 | 288 | 5.2 | 8.7 | 0.00 | 0.00 | 0.00 | 38 | 1012.6 |
| 20260509010604 | 82 | 256 | 5.2 | 8.7 | 0.00 | 0.00 | 0.00 | 38 | 1012.6 |